Wetterdaten: Samstag, 12.04.2014
Datum Zeit Temperatur Luftfeuchte Luftdruck Regen Wind Richtung Richtung Taupunkt Windchill Windben
12.04.2014 00:00 5,9 C 85 % 1018,2 hPa 0,0 l/m 0,0 km/h (0 Bft) SW 225 3,6 C 0,0 C 0,0 km/h (0 Bft)
12.04.2014 00:05 6,0 C 84 % 1017,9 hPa 0,0 l/m 0,0 km/h (0 Bft) SW 225 3,5 C 0,0 C 0,0 km/h (0 Bft)
12.04.2014 00:10 5,7 C 84 % 1017,9 hPa 0,0 l/m 0,0 km/h (0 Bft) SW 225 3,2 C 0,0 C 0,0 km/h (0 Bft)
12.04.2014 00:15 5,6 C 84 % 1017,9 hPa 0,0 l/m 0,0 km/h (0 Bft) SW 225 3,1 C 0,0 C 0,0 km/h (0 Bft)
12.04.2014 00:20 5,7 C 84 % 1017,9 hPa 0,0 l/m 0,0 km/h (0 Bft) SW 225 3,2 C 0,0 C 0,0 km/h (0 Bft)
12.04.2014 00:25 5,8 C 84 % 1017,7 hPa 0,0 l/m 0,0 km/h (0 Bft) SW 225 3,3 C 0,0 C 0,0 km/h (0 Bft)
12.04.2014 00:30 6,0 C 84 % 1017,7 hPa 0,0 l/m 0,0 km/h (0 Bft) SW 225 3,5 C 0,0 C 0,0 km/h (0 Bft)
12.04.2014 00:35 6,0 C 84 % 1017,7 hPa 0,0 l/m 0,0 km/h (0 Bft) SW 225 3,5 C 0,0 C 0,0 km/h (0 Bft)
12.04.2014 00:40 6,1 C 84 % 1017,7 hPa 0,0 l/m 0,0 km/h (0 Bft) SW 225 3,6 C 0,0 C 0,0 km/h (0 Bft)
12.04.2014 00:45 6,2 C 85 % 1017,6 hPa 0,0 l/m 0,0 km/h (0 Bft) SW 225 3,9 C 0,0 C 0,0 km/h (0 Bft)
12.04.2014 00:50 6,1 C 84 % 1017,6 hPa 0,0 l/m 0,0 km/h (0 Bft) SW 225 3,6 C 0,0 C 0,0 km/h (0 Bft)
12.04.2014 00:55 6,1 C 84 % 1017,6 hPa 0,0 l/m 0,0 km/h (0 Bft) SW 225 3,6 C 0,0 C 0,0 km/h (0 Bft)
12.04.2014 01:00 6,2 C 84 % 1017,6 hPa 0,0 l/m 0,0 km/h (0 Bft) SW 225 3,7 C 0,0 C 0,0 km/h (0 Bft)
12.04.2014 01:05 6,3 C 84 % 1017,4 hPa 0,0 l/m 0,0 km/h (0 Bft) SW 225 3,8 C 0,0 C 0,0 km/h (0 Bft)
12.04.2014 01:10 6,3 C 84 % 1017,4 hPa 0,0 l/m 0,0 km/h (0 Bft) SW 225 3,8 C 0,0 C 0,0 km/h (0 Bft)
12.04.2014 01:15 6,3 C 84 % 1017,4 hPa 0,0 l/m 0,0 km/h (0 Bft) SW 225 3,8 C 0,0 C 0,0 km/h (0 Bft)
12.04.2014 01:20 6,3 C 84 % 1017,4 hPa 0,0 l/m 0,0 km/h (0 Bft) SW 225 3,8 C 0,0 C 0,0 km/h (0 Bft)
12.04.2014 01:25 6,3 C 84 % 1017,5 hPa 0,0 l/m 0,0 km/h (0 Bft) SW 225 3,8 C 0,0 C 0,0 km/h (0 Bft)
12.04.2014 01:30 6,3 C 84 % 1017,5 hPa 0,0 l/m 0,0 km/h (0 Bft) SW 225 3,8 C 0,0 C 0,0 km/h (0 Bft)
12.04.2014 01:35 6,3 C 84 % 1017,5 hPa 0,0 l/m 0,0 km/h (0 Bft) SW 225 3,8 C 0,0 C 0,0 km/h (0 Bft)
12.04.2014 01:40 6,2 C 83 % 1017,5 hPa 0,0 l/m 0,0 km/h (0 Bft) SW 225 3,5 C 0,0 C 0,0 km/h (0 Bft)
12.04.2014 01:45 6,2 C 85 % 1017,3 hPa 0,0 l/m 0,0 km/h (0 Bft) SW 225 3,9 C 0,0 C 0,0 km/h (0 Bft)
12.04.2014 01:50 6,3 C 86 % 1017,3 hPa 0,0 l/m 0,0 km/h (0 Bft) SW 225 4,1 C 0,0 C 0,0 km/h (0 Bft)
12.04.2014 01:55 6,3 C 85 % 1017,3 hPa 0,0 l/m 0,0 km/h (0 Bft) SW 225 4,0 C 0,0 C 0,0 km/h (0 Bft)
12.04.2014 02:00 6,3 C 85 % 1017,3 hPa 0,0 l/m 0,0 km/h (0 Bft) SW 225 4,0 C 0,0 C 0,0 km/h (0 Bft)
12.04.2014 02:05 6,6 C 86 % 1017,3 hPa 0,0 l/m 0,0 km/h (0 Bft) SW 225 4,4 C 0,0 C 0,0 km/h (0 Bft)
12.04.2014 02:10 6,5 C 86 % 1017,0 hPa 0,0 l/m 0,0 km/h (0 Bft) SW 225 4,3 C 0,0 C 0,0 km/h (0 Bft)
12.04.2014 02:15 6,5 C 86 % 1017,0 hPa 0,0 l/m 0,0 km/h (0 Bft) SW 225 4,3 C 0,0 C 0,0 km/h (0 Bft)
12.04.2014 02:20 6,7 C 86 % 1017,0 hPa 0,0 l/m 0,0 km/h (0 Bft) SW 225 4,5 C 0,0 C 0,0 km/h (0 Bft)
12.04.2014 02:25 6,7 C 85 % 1017,0 hPa 0,0 l/m 0,0 km/h (0 Bft) SW 225 4,4 C 0,0 C 0,0 km/h (0 Bft)
12.04.2014 02:30 6,6 C 85 % 1017,2 hPa 0,0 l/m 0,0 km/h (0 Bft) SW 225 4,3 C 0,0 C 0,0 km/h (0 Bft)
12.04.2014 02:35 6,6 C 85 % 1017,2 hPa 0,0 l/m 0,0 km/h (0 Bft) SW 225 4,3 C 0,0 C 0,0 km/h (0 Bft)
12.04.2014 02:40 6,7 C 85 % 1017,2 hPa 0,0 l/m 0,0 km/h (0 Bft) SW 225 4,4 C 0,0 C 0,0 km/h (0 Bft)
12.04.2014 02:45 6,7 C 84 % 1017,2 hPa 0,0 l/m 0,0 km/h (0 Bft) SW 225 4,2 C 0,0 C 0,0 km/h (0 Bft)
12.04.2014 02:50 6,7 C 84 % 1016,9 hPa 0,0 l/m 0,0 km/h (0 Bft) SW 225 4,2 C 0,0 C 0,0 km/h (0 Bft)
12.04.2014 02:55 6,4 C 84 % 1016,9 hPa 0,0 l/m 0,0 km/h (0 Bft) SW 225 3,9 C 0,0 C 0,0 km/h (0 Bft)
12.04.2014 03:00 6,2 C 83 % 1016,9 hPa 0,0 l/m 0,0 km/h (0 Bft) SW 225 3,5 C 0,0 C 0,0 km/h (0 Bft)
12.04.2014 03:05 5,8 C 84 % 1016,9 hPa 0,0 l/m 0,0 km/h (0 Bft) SW 225 3,3 C 0,0 C 0,0 km/h (0 Bft)
12.04.2014 03:10 5,6 C 85 % 1016,9 hPa 0,0 l/m 0,0 km/h (0 Bft) SW 225 3,3 C 0,0 C 0,0 km/h (0 Bft)
12.04.2014 03:15 5,5 C 86 % 1016,9 hPa 0,0 l/m 0,0 km/h (0 Bft) SW 225 3,3 C 0,0 C 0,0 km/h (0 Bft)
12.04.2014 03:19 5,3 C 86 % 1016,9 hPa 0,0 l/m 0,0 km/h (0 Bft) SW 225 3,2 C 0,0 C 0,0 km/h (0 Bft)
12.04.2014 03:20 5,2 C 86 % 1016,9 hPa 0,0 l/m 0,0 km/h (0 Bft) SW 225 3,1 C 0,0 C 0,0 km/h (0 Bft)
12.04.2014 03:25 5,2 C 86 % 1016,8 hPa 0,0 l/m 0,0 km/h (0 Bft) SW 225 3,1 C 0,0 C 0,0 km/h (0 Bft)
12.04.2014 03:30 4,8 C 86 % 1016,8 hPa 0,0 l/m 0,0 km/h (0 Bft) SW 225 2,7 C 0,0 C 0,0 km/h (0 Bft)
12.04.2014 03:35 4,9 C 86 % 1016,8 hPa 0,0 l/m 0,0 km/h (0 Bft) SW 225 2,8 C 0,0 C 0,0 km/h (0 Bft)
12.04.2014 03:40 5,0 C 86 % 1016,8 hPa 0,0 l/m 0,0 km/h (0 Bft) SW 225 2,9 C 0,0 C 0,0 km/h (0 Bft)
12.04.2014 03:45 5,1 C 87 % 1016,8 hPa 0,0 l/m 0,0 km/h (0 Bft) SW 225 3,1 C 0,0 C 0,0 km/h (0 Bft)
12.04.2014 03:50 4,8 C 87 % 1016,8 hPa 0,0 l/m 0,0 km/h (0 Bft) SW 225 2,8 C 0,0 C 0,0 km/h (0 Bft)
12.04.2014 03:55 5,1 C 87 % 1016,8 hPa 0,0 l/m 0,0 km/h (0 Bft) SW 225 3,1 C 0,0 C 0,0 km/h (0 Bft)
12.04.2014 04:00 5,1 C 87 % 1016,8 hPa 0,0 l/m 0,0 km/h (0 Bft) SW 225 3,1 C 0,0 C 0,0 km/h (0 Bft)
12.04.2014 04:05 5,1 C 87 % 1016,7 hPa 0,0 l/m 0,0 km/h (0 Bft) SW 225 3,1 C 0,0 C 0,0 km/h (0 Bft)
12.04.2014 04:10 5,1 C 88 % 1016,7 hPa 0,0 l/m 0,0 km/h (0 Bft) SW 225 3,3 C 0,0 C 0,0 km/h (0 Bft)
12.04.2014 04:15 5,0 C 88 % 1016,7 hPa 0,0 l/m 0,0 km/h (0 Bft) SW 225 3,2 C 0,0 C 0,0 km/h (0 Bft)
12.04.2014 04:20 4,5 C 88 % 1016,7 hPa 0,0 l/m 0,0 km/h (0 Bft) SW 225 2,7 C 0,0 C 0,0 km/h (0 Bft)
12.04.2014 04:25 4,4 C 88 % 1016,5 hPa 0,0 l/m 0,0 km/h (0 Bft) SW 225 2,6 C 0,0 C 0,0 km/h (0 Bft)
12.04.2014 04:30 4,3 C 88 % 1016,5 hPa 0,0 l/m 0,0 km/h (0 Bft) SW 225 2,5 C 0,0 C 0,0 km/h (0 Bft)
12.04.2014 04:35 4,3 C 88 % 1016,5 hPa 0,0 l/m 0,0 km/h (0 Bft) SW 225 2,5 C 0,0 C 0,0 km/h (0 Bft)
12.04.2014 04:40 4,5 C 88 % 1016,5 hPa 0,0 l/m 0,0 km/h (0 Bft) SW 225 2,7 C 0,0 C 0,0 km/h (0 Bft)
12.04.2014 04:45 4,6 C 88 % 1016,3 hPa 0,0 l/m 0,0 km/h (0 Bft) SW 225 2,8 C 0,0 C 0,0 km/h (0 Bft)
12.04.2014 04:50 4,6 C 88 % 1016,3 hPa 0,0 l/m 0,0 km/h (0 Bft) SW 225 2,8 C 0,0 C 0,0 km/h (0 Bft)
12.04.2014 04:55 4,6 C 88 % 1016,3 hPa 0,0 l/m 0,0 km/h (0 Bft) SW 225 2,8 C 0,0 C 0,0 km/h (0 Bft)
12.04.2014 05:00 4,6 C 88 % 1016,3 hPa 0,0 l/m 0,0 km/h (0 Bft) SW 225 2,8 C 0,0 C 0,0 km/h (0 Bft)
12.04.2014 05:05 4,7 C 88 % 1016,2 hPa 0,0 l/m 0,0 km/h (0 Bft) SW 225 2,9 C 0,0 C 0,0 km/h (0 Bft)
12.04.2014 05:10 4,8 C 88 % 1016,2 hPa 0,0 l/m 0,0 km/h (0 Bft) SW 225 3,0 C 0,0 C 0,0 km/h (0 Bft)
12.04.2014 05:15 4,8 C 89 % 1016,2 hPa 0,0 l/m 0,0 km/h (0 Bft) SW 225 3,1 C 0,0 C 0,0 km/h (0 Bft)
12.04.2014 05:20 4,8 C 89 % 1016,2 hPa 0,0 l/m 0,0 km/h (0 Bft) SW 225 3,1 C 0,0 C 0,0 km/h (0 Bft)
12.04.2014 05:25 4,7 C 88 % 1016,3 hPa 0,0 l/m 0,0 km/h (0 Bft) SW 225 2,9 C 0,0 C 0,0 km/h (0 Bft)
12.04.2014 05:30 4,8 C 89 % 1016,3 hPa 0,0 l/m 0,0 km/h (0 Bft) SW 225 3,1 C 0,0 C 0,0 km/h (0 Bft)
12.04.2014 05:35 4,8 C 89 % 1016,3 hPa 0,0 l/m 0,0 km/h (0 Bft) SW 225 3,1 C 0,0 C 0,0 km/h (0 Bft)
12.04.2014 05:40 4,7 C 89 % 1016,3 hPa 0,0 l/m 0,0 km/h (0 Bft) SW 225 3,0 C 0,0 C 0,0 km/h (0 Bft)
12.04.2014 05:45 4,7 C 88 % 1016,3 hPa 0,0 l/m 0,0 km/h (0 Bft) SW 225 2,9 C 0,0 C 0,0 km/h (0 Bft)
12.04.2014 05:50 4,7 C 88 % 1016,3 hPa 0,0 l/m 0,0 km/h (0 Bft) SW 225 2,9 C 0,0 C 0,0 km/h (0 Bft)
12.04.2014 05:55 4,6 C 88 % 1016,3 hPa 0,0 l/m 0,0 km/h (0 Bft) SW 225 2,8 C 0,0 C 0,0 km/h (0 Bft)
12.04.2014 06:00 4,5 C 88 % 1016,3 hPa 0,0 l/m 0,0 km/h (0 Bft) SW 225 2,7 C 0,0 C 0,0 km/h (0 Bft)
12.04.2014 06:05 4,4 C 88 % 1016,3 hPa 0,0 l/m 0,0 km/h (0 Bft) SW 225 2,6 C 0,0 C 0,0 km/h (0 Bft)
12.04.2014 06:10 4,4 C 88 % 1016,3 hPa 0,0 l/m 0,0 km/h (0 Bft) SW 225 2,6 C 0,0 C 0,0 km/h (0 Bft)
12.04.2014 06:15 4,5 C 89 % 1016,3 hPa 0,0 l/m 0,0 km/h (0 Bft) SW 225 2,8 C 0,0 C 0,0 km/h (0 Bft)
12.04.2014 06:20 4,2 C 89 % 1016,3 hPa 0,0 l/m 0,0 km/h (0 Bft) SW 225 2,6 C 0,0 C 0,0 km/h (0 Bft)
12.04.2014 06:25 4,2 C 89 % 1016,6 hPa 0,0 l/m 0,0 km/h (0 Bft) SW 225 2,6 C 0,0 C 0,0 km/h (0 Bft)
12.04.2014 06:30 4,1 C 89 % 1016,6 hPa 0,0 l/m 0,0 km/h (0 Bft) SW 225 2,5 C 0,0 C 0,0 km/h (0 Bft)
12.04.2014 06:35 4,0 C 89 % 1016,6 hPa 0,0 l/m 0,0 km/h (0 Bft) SW 225 2,4 C 0,0 C 0,0 km/h (0 Bft)
12.04.2014 06:40 4,1 C 89 % 1016,6 hPa 0,0 l/m 0,0 km/h (0 Bft) SW 225 2,5 C 0,0 C 0,0 km/h (0 Bft)
12.04.2014 06:45 4,0 C 89 % 1016,6 hPa 0,0 l/m 0,0 km/h (0 Bft) SW 225 2,4 C 0,0 C 0,0 km/h (0 Bft)
12.04.2014 06:50 4,0 C 89 % 1016,6 hPa 0,0 l/m 0,0 km/h (0 Bft) SW 225 2,4 C 0,0 C 0,0 km/h (0 Bft)
12.04.2014 06:55 4,0 C 89 % 1016,6 hPa 0,0 l/m 0,0 km/h (0 Bft) SW 225 2,4 C 0,0 C 0,0 km/h (0 Bft)
12.04.2014 07:00 4,2 C 89 % 1016,6 hPa 0,0 l/m 0,0 km/h (0 Bft) SW 225 2,6 C 0,0 C 0,0 km/h (0 Bft)
12.04.2014 07:05 4,3 C 89 % 1016,6 hPa 0,0 l/m 0,0 km/h (0 Bft) SW 225 2,7 C 0,0 C 0,0 km/h (0 Bft)
12.04.2014 07:10 4,2 C 89 % 1016,1 hPa 0,0 l/m 0,0 km/h (0 Bft) SW 225 2,6 C 0,0 C 0,0 km/h (0 Bft)
12.04.2014 07:15 4,2 C 89 % 1016,1 hPa 0,0 l/m 0,0 km/h (0 Bft) SW 225 2,6 C 0,0 C 0,0 km/h (0 Bft)
12.04.2014 07:20 4,3 C 89 % 1016,1 hPa 0,0 l/m 0,0 km/h (0 Bft) SW 225 2,7 C 0,0 C 0,0 km/h (0 Bft)
12.04.2014 07:25 4,5 C 89 % 1016,1 hPa 0,0 l/m 0,0 km/h (0 Bft) SW 225 2,8 C 0,0 C 0,0 km/h (0 Bft)
12.04.2014 07:30 4,3 C 89 % 1016,4 hPa 0,0 l/m 0,0 km/h (0 Bft) SW 225 2,7 C 0,0 C 0,0 km/h (0 Bft)
12.04.2014 07:35 4,4 C 89 % 1016,4 hPa 0,0 l/m 0,0 km/h (0 Bft) SW 225 2,7 C 0,0 C 0,0 km/h (0 Bft)
12.04.2014 07:40 4,6 C 89 % 1016,4 hPa 0,0 l/m 0,0 km/h (0 Bft) SW 225 2,9 C 0,0 C 0,0 km/h (0 Bft)
12.04.2014 07:45 4,8 C 89 % 1016,4 hPa 0,0 l/m 0,0 km/h (0 Bft) SW 225 3,1 C 0,0 C 0,0 km/h (0 Bft)
12.04.2014 07:50 4,9 C 89 % 1016,5 hPa 0,0 l/m 0,0 km/h (0 Bft) SW 225 3,2 C 0,0 C 0,0 km/h (0 Bft)
12.04.2014 07:55 5,2 C 89 % 1016,5 hPa 0,0 l/m 0,0 km/h (0 Bft) SW 225 3,5 C 0,0 C 0,0 km/h (0 Bft)
12.04.2014 08:00 5,5 C 89 % 1016,5 hPa 0,0 l/m 0,0 km/h (0 Bft) SW 225 3,8 C 0,0 C 0,0 km/h (0 Bft)
12.04.2014 08:05 6,0 C 88 % 1016,5 hPa 0,0 l/m 0,0 km/h (0 Bft) SW 225 4,2 C 0,0 C 0,0 km/h (0 Bft)
12.04.2014 08:10 6,4 C 88 % 1016,5 hPa 0,0 l/m 0,0 km/h (0 Bft) SW 225 4,6 C 0,0 C 0,0 km/h (0 Bft)
12.04.2014 08:15 6,5 C 87 % 1016,5 hPa 0,0 l/m 0,0 km/h (0 Bft) SW 225 4,5 C 0,0 C 0,0 km/h (0 Bft)
12.04.2014 08:19 6,9 C 87 % 1016,5 hPa 0,0 l/m 0,0 km/h (0 Bft) SW 225 4,9 C 0,0 C 0,0 km/h (0 Bft)
12.04.2014 08:20 7,6 C 87 % 1016,5 hPa 0,0 l/m 0,0 km/h (0 Bft) SW 225 5,6 C 0,0 C 0,0 km/h (0 Bft)
12.04.2014 08:25 7,9 C 86 % 1016,9 hPa 0,0 l/m 0,0 km/h (0 Bft) SW 225 5,7 C 0,0 C 0,0 km/h (0 Bft)
12.04.2014 08:30 8,6 C 85 % 1016,9 hPa 0,0 l/m 0,0 km/h (0 Bft) SW 225 6,2 C 0,0 C 0,0 km/h (0 Bft)
12.04.2014 08:35 9,8 C 83 % 1016,9 hPa 0,0 l/m 0,0 km/h (0 Bft) SW 225 7,1 C 0,0 C 0,0 km/h (0 Bft)
12.04.2014 08:40 11,3 C 80 % 1016,9 hPa 0,0 l/m 0,0 km/h (0 Bft) SW 225 8,0 C 0,0 C 0,0 km/h (0 Bft)
12.04.2014 08:45 12,0 C 78 % 1017,2 hPa 0,0 l/m 0,0 km/h (0 Bft) SW 225 8,3 C 0,0 C 0,0 km/h (0 Bft)
12.04.2014 08:50 10,3 C 77 % 1017,2 hPa 0,0 l/m 0,0 km/h (0 Bft) SW 225 6,4 C 0,0 C 0,0 km/h (0 Bft)
12.04.2014 08:55 10,3 C 76 % 1017,2 hPa 0,0 l/m 0,0 km/h (0 Bft) SW 225 6,3 C 0,0 C 0,0 km/h (0 Bft)
12.04.2014 09:00 9,8 C 76 % 1017,2 hPa 0,0 l/m 0,0 km/h (0 Bft) SW 225 5,8 C 0,0 C 0,0 km/h (0 Bft)
12.04.2014 09:05 10,0 C 76 % 1017,6 hPa 0,0 l/m 0,0 km/h (0 Bft) SW 225 6,0 C 0,0 C 0,0 km/h (0 Bft)
12.04.2014 09:10 14,6 C 72 % 1017,6 hPa 0,0 l/m 0,0 km/h (0 Bft) SW 225 9,6 C 0,0 C 0,0 km/h (0 Bft)
12.04.2014 09:15 14,7 C 66 % 1017,6 hPa 0,0 l/m 0,0 km/h (0 Bft) SW 225 8,4 C 0,0 C 0,0 km/h (0 Bft)
12.04.2014 09:20 13,2 C 66 % 1017,6 hPa 0,0 l/m 0,0 km/h (0 Bft) SW 225 7,0 C 0,0 C 0,0 km/h (0 Bft)
12.04.2014 09:25 14,2 C 64 % 1018,0 hPa 0,0 l/m 0,0 km/h (0 Bft) SW 225 7,5 C 0,0 C 0,0 km/h (0 Bft)
12.04.2014 09:30 15,9 C 59 % 1018,0 hPa 0,0 l/m 0,0 km/h (0 Bft) SW 225 7,9 C 0,0 C 0,0 km/h (0 Bft)
12.04.2014 09:35 16,6 C 58 % 1018,0 hPa 0,0 l/m 0,0 km/h (0 Bft) SW 225 8,3 C 0,0 C 0,0 km/h (0 Bft)
12.04.2014 09:40 17,7 C 54 % 1018,0 hPa 0,0 l/m 0,0 km/h (0 Bft) SW 225 8,3 C 0,0 C 0,0 km/h (0 Bft)
12.04.2014 09:45 17,0 C 53 % 1018,2 hPa 0,0 l/m 0,0 km/h (0 Bft) SW 225 7,4 C 0,0 C 0,0 km/h (0 Bft)
12.04.2014 09:50 16,4 C 49 % 1018,2 hPa 0,0 l/m 0,0 km/h (0 Bft) SW 225 5,7 C 0,0 C 0,0 km/h (0 Bft)
12.04.2014 09:55 16,7 C 49 % 1018,2 hPa 0,0 l/m 0,0 km/h (0 Bft) SW 225 5,9 C 0,0 C 0,0 km/h (0 Bft)
12.04.2014 10:00 15,8 C 53 % 1018,2 hPa 0,0 l/m 0,0 km/h (0 Bft) SW 225 6,2 C 0,0 C 0,0 km/h (0 Bft)
12.04.2014 10:05 15,8 C 53 % 1018,7 hPa 0,0 l/m 0,0 km/h (0 Bft) SW 225 6,2 C 0,0 C 0,0 km/h (0 Bft)
12.04.2014 10:10 14,7 C 55 % 1018,7 hPa 0,0 l/m 0,0 km/h (0 Bft) SW 225 5,8 C 0,0 C 0,0 km/h (0 Bft)
12.04.2014 10:15 14,6 C 56 % 1018,7 hPa 0,0 l/m 0,0 km/h (0 Bft) SW 225 5,9 C 0,0 C 0,0 km/h (0 Bft)
12.04.2014 10:20 15,6 C 56 % 1018,7 hPa 0,0 l/m 0,0 km/h (0 Bft) SW 225 6,9 C 0,0 C 0,0 km/h (0 Bft)
12.04.2014 10:25 15,1 C 54 % 1019,0 hPa 0,0 l/m 0,0 km/h (0 Bft) SW 225 5,9 C 0,0 C 0,0 km/h (0 Bft)
12.04.2014 10:30 13,9 C 56 % 1019,0 hPa 0,0 l/m 0,0 km/h (0 Bft) SW 225 5,3 C 0,0 C 0,0 km/h (0 Bft)
12.04.2014 10:35 13,9 C 58 % 1019,0 hPa 0,0 l/m 0,0 km/h (0 Bft) SW 225 5,8 C 0,0 C 0,0 km/h (0 Bft)
12.04.2014 10:40 14,3 C 58 % 1019,0 hPa 0,0 l/m 0,0 km/h (0 Bft) SW 225 6,2 C 0,0 C 0,0 km/h (0 Bft)
12.04.2014 10:45 14,7 C 58 % 1018,7 hPa 0,0 l/m 0,0 km/h (0 Bft) SW 225 6,5 C 0,0 C 0,0 km/h (0 Bft)
12.04.2014 10:50 15,6 C 55 % 1018,7 hPa 0,0 l/m 0,0 km/h (0 Bft) SW 225 6,6 C 0,0 C 0,0 km/h (0 Bft)
12.04.2014 10:55 17,2 C 50 % 1018,7 hPa 0,0 l/m 0,0 km/h (0 Bft) SW 225 6,7 C 0,0 C 0,0 km/h (0 Bft)
12.04.2014 11:00 17,0 C 49 % 1018,7 hPa 0,0 l/m 0,0 km/h (0 Bft) SW 225 6,2 C 0,0 C 0,0 km/h (0 Bft)
12.04.2014 11:05 15,7 C 55 % 1019,0 hPa 0,0 l/m 0,0 km/h (0 Bft) SW 225 6,7 C 0,0 C 0,0 km/h (0 Bft)
12.04.2014 11:10 15,4 C 56 % 1019,0 hPa 0,0 l/m 0,0 km/h (0 Bft) SW 225 6,7 C 0,0 C 0,0 km/h (0 Bft)
12.04.2014 11:15 15,9 C 56 % 1019,0 hPa 0,0 l/m 0,0 km/h (0 Bft) SW 225 7,1 C 0,0 C 0,0 km/h (0 Bft)
12.04.2014 11:20 15,7 C 56 % 1019,0 hPa 0,0 l/m 0,0 km/h (0 Bft) SW 225 6,9 C 0,0 C 0,0 km/h (0 Bft)
12.04.2014 11:25 15,6 C 56 % 1018,9 hPa 0,0 l/m 0,0 km/h (0 Bft) SW 225 6,9 C 0,0 C 0,0 km/h (0 Bft)
12.04.2014 11:30 15,1 C 56 % 1018,9 hPa 0,0 l/m 0,0 km/h (0 Bft) SW 225 6,4 C 0,0 C 0,0 km/h (0 Bft)
12.04.2014 11:35 15,1 C 57 % 1018,9 hPa 0,0 l/m 0,0 km/h (0 Bft) SW 225 6,6 C 0,0 C 0,0 km/h (0 Bft)
12.04.2014 11:40 15,3 C 57 % 1018,9 hPa 0,0 l/m 0,0 km/h (0 Bft) SW 225 6,8 C 0,0 C 0,0 km/h (0 Bft)
12.04.2014 11:45 15,3 C 55 % 1019,1 hPa 0,0 l/m 0,0 km/h (0 Bft) SW 225 6,3 C 0,0 C 0,0 km/h (0 Bft)
12.04.2014 11:50 15,5 C 56 % 1019,1 hPa 0,0 l/m 0,0 km/h (0 Bft) SW 225 6,8 C 0,0 C 0,0 km/h (0 Bft)
12.04.2014 11:55 15,5 C 56 % 1019,1 hPa 0,0 l/m 0,0 km/h (0 Bft) SW 225 6,8 C 0,0 C 0,0 km/h (0 Bft)
12.04.2014 12:00 15,4 C 54 % 1019,1 hPa 0,0 l/m 0,0 km/h (0 Bft) SW 225 6,1 C 0,0 C 0,0 km/h (0 Bft)
12.04.2014 12:05 15,2 C 54 % 1018,9 hPa 0,0 l/m 0,0 km/h (0 Bft) SW 225 6,0 C 0,0 C 0,0 km/h (0 Bft)
12.04.2014 12:10 15,2 C 54 % 1018,9 hPa 0,0 l/m 0,0 km/h (0 Bft) SW 225 6,0 C 0,0 C 0,0 km/h (0 Bft)
12.04.2014 12:15 15,7 C 55 % 1018,9 hPa 0,0 l/m 0,0 km/h (0 Bft) SW 225 6,7 C 0,0 C 0,0 km/h (0 Bft)
12.04.2014 12:20 16,0 C 53 % 1018,9 hPa 0,0 l/m 0,0 km/h (0 Bft) SW 225 6,4 C 0,0 C 0,0 km/h (0 Bft)
12.04.2014 12:25 16,4 C 51 % 1018,9 hPa 0,0 l/m 0,0 km/h (0 Bft) SW 225 6,2 C 0,0 C 0,0 km/h (0 Bft)
12.04.2014 12:30 17,3 C 50 % 1018,7 hPa 0,0 l/m 0,0 km/h (0 Bft) SW 225 6,8 C 0,0 C 0,0 km/h (0 Bft)
12.04.2014 12:35 16,0 C 46 % 1018,7 hPa 0,0 l/m 0,0 km/h (0 Bft) SW 225 4,4 C 0,0 C 0,0 km/h (0 Bft)
12.04.2014 12:40 15,6 C 49 % 1018,7 hPa 0,0 l/m 0,0 km/h (0 Bft) SW 225 4,9 C 0,0 C 0,0 km/h (0 Bft)
12.04.2014 12:45 15,8 C 53 % 1018,7 hPa 0,0 l/m 0,0 km/h (0 Bft) SW 225 6,2 C 0,0 C 0,0 km/h (0 Bft)
12.04.2014 12:50 15,4 C 53 % 1019,1 hPa 0,0 l/m 0,0 km/h (0 Bft) SW 225 5,9 C 0,0 C 0,0 km/h (0 Bft)
12.04.2014 12:55 15,9 C 50 % 1019,1 hPa 0,0 l/m 0,0 km/h (0 Bft) SW 225 5,5 C 0,0 C 0,0 km/h (0 Bft)
12.04.2014 13:00 16,4 C 49 % 1019,1 hPa 0,0 l/m 0,0 km/h (0 Bft) SW 225 5,7 C 0,0 C 0,0 km/h (0 Bft)
12.04.2014 13:05 16,5 C 49 % 1019,1 hPa 0,0 l/m 0,0 km/h (0 Bft) SW 225 5,8 C 0,0 C 0,0 km/h (0 Bft)
12.04.2014 13:10 16,1 C 50 % 1018,6 hPa 0,0 l/m 0,0 km/h (0 Bft) SW 225 5,7 C 0,0 C 0,0 km/h (0 Bft)
12.04.2014 13:15 16,2 C 50 % 1018,6 hPa 0,0 l/m 0,0 km/h (0 Bft) SW 225 5,8 C 0,0 C 0,0 km/h (0 Bft)
12.04.2014 13:19 17,1 C 50 % 1018,6 hPa 0,0 l/m 0,0 km/h (0 Bft) SW 225 6,6 C 0,0 C 0,0 km/h (0 Bft)
12.04.2014 13:20 17,5 C 48 % 1018,6 hPa 0,0 l/m 0,0 km/h (0 Bft) SW 225 6,4 C 0,0 C 0,0 km/h (0 Bft)
12.04.2014 13:25 17,2 C 48 % 1018,5 hPa 0,0 l/m 0,0 km/h (0 Bft) SW 225 6,1 C 0,0 C 0,0 km/h (0 Bft)
12.04.2014 13:30 17,1 C 48 % 1018,5 hPa 0,0 l/m 0,0 km/h (0 Bft) SW 225 6,0 C 0,0 C 0,0 km/h (0 Bft)
12.04.2014 13:35 17,0 C 47 % 1018,5 hPa 0,0 l/m 0,0 km/h (0 Bft) SW 225 5,6 C 0,0 C 0,0 km/h (0 Bft)
12.04.2014 13:40 17,5 C 47 % 1018,5 hPa 0,0 l/m 0,0 km/h (0 Bft) SW 225 6,1 C 0,0 C 0,0 km/h (0 Bft)
12.04.2014 13:45 18,1 C 46 % 1018,4 hPa 0,0 l/m 0,0 km/h (0 Bft) SW 225 6,3 C 0,0 C 0,0 km/h (0 Bft)
12.04.2014 13:50 17,3 C 45 % 1018,4 hPa 0,0 l/m 0,0 km/h (0 Bft) SW 225 5,3 C 0,0 C 0,0 km/h (0 Bft)
12.04.2014 13:55 17,5 C 46 % 1018,4 hPa 0,0 l/m 0,0 km/h (0 Bft) SW 225 5,8 C 0,0 C 0,0 km/h (0 Bft)
12.04.2014 14:00 17,1 C 46 % 1018,4 hPa 0,0 l/m 0,0 km/h (0 Bft) SW 225 5,4 C 0,0 C 0,0 km/h (0 Bft)
12.04.2014 14:05 17,3 C 46 % 1018,4 hPa 0,0 l/m 0,0 km/h (0 Bft) SW 225 5,6 C 0,0 C 0,0 km/h (0 Bft)
12.04.2014 14:10 17,5 C 47 % 1018,4 hPa 0,0 l/m 0,0 km/h (0 Bft) SW 225 6,1 C 0,0 C 0,0 km/h (0 Bft)
12.04.2014 14:15 17,7 C 47 % 1018,4 hPa 0,0 l/m 0,0 km/h (0 Bft) SW 225 6,2 C 0,0 C 0,0 km/h (0 Bft)
12.04.2014 14:20 17,8 C 46 % 1018,4 hPa 0,0 l/m 0,0 km/h (0 Bft) SW 225 6,0 C 0,0 C 0,0 km/h (0 Bft)
12.04.2014 14:25 18,6 C 46 % 1018,2 hPa 0,0 l/m 0,0 km/h (0 Bft) SW 225 6,8 C 0,0 C 0,0 km/h (0 Bft)
12.04.2014 14:30 18,6 C 43 % 1018,2 hPa 0,0 l/m 0,0 km/h (0 Bft) SW 225 5,8 C 0,0 C 0,0 km/h (0 Bft)
12.04.2014 14:35 18,7 C 44 % 1018,2 hPa 0,0 l/m 0,0 km/h (0 Bft) SW 225 6,2 C 0,0 C 0,0 km/h (0 Bft)
12.04.2014 14:40 19,2 C 42 % 1018,2 hPa 0,0 l/m 0,0 km/h (0 Bft) SW 225 6,0 C 0,0 C 0,0 km/h (0 Bft)
12.04.2014 14:45 18,3 C 42 % 1018,1 hPa 0,0 l/m 0,0 km/h (0 Bft) SW 225 5,2 C 0,0 C 0,0 km/h (0 Bft)
12.04.2014 14:50 19,3 C 41 % 1018,1 hPa 0,0 l/m 0,0 km/h (0 Bft) SW 225 5,7 C 0,0 C 0,0 km/h (0 Bft)
12.04.2014 14:55 19,6 C 38 % 1018,1 hPa 0,0 l/m 0,0 km/h (0 Bft) SW 225 4,9 C 0,0 C 0,0 km/h (0 Bft)
12.04.2014 15:00 20,2 C 38 % 1018,1 hPa 0,0 l/m 0,0 km/h (0 Bft) SW 225 5,4 C 0,0 C 0,0 km/h (0 Bft)
12.04.2014 15:05 20,1 C 34 % 1018,0 hPa 0,0 l/m 0,0 km/h (0 Bft) SW 225 3,7 C 0,0 C 0,0 km/h (0 Bft)
12.04.2014 15:10 19,0 C 36 % 1018,0 hPa 0,0 l/m 0,0 km/h (0 Bft) SW 225 3,6 C 0,0 C 0,0 km/h (0 Bft)
12.04.2014 15:15 20,2 C 34 % 1018,0 hPa 0,0 l/m 0,0 km/h (0 Bft) SW 225 3,8 C 0,0 C 0,0 km/h (0 Bft)
12.04.2014 15:20 19,8 C 32 % 1018,0 hPa 0,0 l/m 0,0 km/h (0 Bft) SW 225 2,6 C 0,0 C 0,0 km/h (0 Bft)
12.04.2014 15:25 18,6 C 34 % 1017,9 hPa 0,0 l/m 0,0 km/h (0 Bft) SW 225 2,4 C 0,0 C 0,0 km/h (0 Bft)
12.04.2014 15:30 17,4 C 37 % 1017,9 hPa 0,0 l/m 0,0 km/h (0 Bft) SW 225 2,6 C 0,0 C 0,0 km/h (0 Bft)
12.04.2014 15:35 16,7 C 39 % 1017,9 hPa 0,0 l/m 0,0 km/h (0 Bft) SW 225 2,7 C 0,0 C 0,0 km/h (0 Bft)
12.04.2014 15:40 15,6 C 44 % 1017,9 hPa 0,0 l/m 0,0 km/h (0 Bft) SW 225 3,4 C 0,0 C 0,0 km/h (0 Bft)
12.04.2014 15:45 15,3 C 48 % 1017,6 hPa 0,0 l/m 0,0 km/h (0 Bft) SW 225 4,4 C 0,0 C 0,0 km/h (0 Bft)
12.04.2014 15:50 15,2 C 52 % 1017,6 hPa 0,0 l/m 0,0 km/h (0 Bft) SW 225 5,4 C 0,0 C 0,0 km/h (0 Bft)
12.04.2014 15:55 15,7 C 58 % 1017,6 hPa 0,0 l/m 0,0 km/h (0 Bft) SW 225 7,5 C 0,0 C 0,0 km/h (0 Bft)
12.04.2014 16:00 15,2 C 53 % 1017,6 hPa 0,0 l/m 0,0 km/h (0 Bft) SW 225 5,7 C 0,0 C 0,0 km/h (0 Bft)
12.04.2014 16:05 15,4 C 58 % 1017,5 hPa 0,0 l/m 0,0 km/h (0 Bft) SW 225 7,2 C 0,0 C 0,0 km/h (0 Bft)
12.04.2014 16:10 15,2 C 63 % 1017,5 hPa 0,0 l/m 0,0 km/h (0 Bft) SW 225 8,2 C 0,0 C 0,0 km/h (0 Bft)
12.04.2014 16:15 15,8 C 48 % 1017,5 hPa 0,0 l/m 0,0 km/h (0 Bft) SW 225 4,8 C 0,0 C 0,0 km/h (0 Bft)
12.04.2014 16:20 15,6 C 51 % 1017,5 hPa 0,0 l/m 0,0 km/h (0 Bft) SW 225 5,5 C 0,0 C 0,0 km/h (0 Bft)
12.04.2014 16:25 15,7 C 45 % 1017,4 hPa 0,0 l/m 0,0 km/h (0 Bft) SW 225 3,8 C 0,0 C 0,0 km/h (0 Bft)
12.04.2014 16:30 15,5 C 46 % 1017,4 hPa 0,0 l/m 0,0 km/h (0 Bft) SW 225 3,9 C 0,0 C 0,0 km/h (0 Bft)
12.04.2014 16:35 15,0 C 49 % 1017,4 hPa 0,0 l/m 0,0 km/h (0 Bft) SW 225 4,4 C 0,0 C 0,0 km/h (0 Bft)
12.04.2014 16:40 14,7 C 49 % 1017,4 hPa 0,0 l/m 0,0 km/h (0 Bft) SW 225 4,1 C 0,0 C 0,0 km/h (0 Bft)
12.04.2014 16:45 14,5 C 48 % 1016,8 hPa 0,0 l/m 0,0 km/h (0 Bft) SW 225 3,6 C 0,0 C 0,0 km/h (0 Bft)
12.04.2014 16:50 14,3 C 52 % 1016,8 hPa 0,0 l/m 0,0 km/h (0 Bft) SW 225 4,6 C 0,0 C 0,0 km/h (0 Bft)
12.04.2014 16:55 14,3 C 52 % 1016,8 hPa 0,0 l/m 0,0 km/h (0 Bft) SW 225 4,6 C 0,0 C 0,0 km/h (0 Bft)
12.04.2014 17:00 14,1 C 51 % 1016,8 hPa 0,0 l/m 0,0 km/h (0 Bft) SW 225 4,1 C 0,0 C 0,0 km/h (0 Bft)
12.04.2014 17:05 14,2 C 50 % 1016,8 hPa 0,0 l/m 0,0 km/h (0 Bft) SW 225 3,9 C 0,0 C 0,0 km/h (0 Bft)
12.04.2014 17:10 14,3 C 52 % 1016,7 hPa 0,0 l/m 0,0 km/h (0 Bft) SW 225 4,6 C 0,0 C 0,0 km/h (0 Bft)
12.04.2014 17:15 14,7 C 52 % 1016,7 hPa 0,0 l/m 0,0 km/h (0 Bft) SW 225 5,0 C 0,0 C 0,0 km/h (0 Bft)
12.04.2014 17:20 15,0 C 51 % 1016,7 hPa 0,0 l/m 0,0 km/h (0 Bft) SW 225 4,9 C 0,0 C 0,0 km/h (0 Bft)
12.04.2014 17:25 14,9 C 52 % 1016,7 hPa 0,0 l/m 0,0 km/h (0 Bft) SW 225 5,1 C 0,0 C 0,0 km/h (0 Bft)
12.04.2014 17:30 14,8 C 52 % 1016,6 hPa 0,0 l/m 0,0 km/h (0 Bft) SW 225 5,0 C 0,0 C 0,0 km/h (0 Bft)
12.04.2014 17:35 14,4 C 54 % 1016,6 hPa 0,0 l/m 0,0 km/h (0 Bft) SW 225 5,2 C 0,0 C 0,0 km/h (0 Bft)
12.04.2014 17:40 14,2 C 54 % 1016,6 hPa 0,0 l/m 0,0 km/h (0 Bft) SW 225 5,0 C 0,0 C 0,0 km/h (0 Bft)
12.04.2014 17:45 14,2 C 57 % 1016,6 hPa 0,0 l/m 0,0 km/h (0 Bft) SW 225 5,8 C 0,0 C 0,0 km/h (0 Bft)
12.04.2014 17:50 14,6 C 56 % 1016,6 hPa 0,0 l/m 0,0 km/h (0 Bft) SW 225 5,9 C 0,0 C 0,0 km/h (0 Bft)
12.04.2014 17:55 15,2 C 57 % 1016,6 hPa 0,0 l/m 0,0 km/h (0 Bft) SW 225 6,7 C 0,0 C 0,0 km/h (0 Bft)
12.04.2014 18:00 14,8 C 56 % 1016,6 hPa 0,0 l/m 0,0 km/h (0 Bft) SW 225 6,1 C 0,0 C 0,0 km/h (0 Bft)
12.04.2014 18:05 14,6 C 57 % 1016,6 hPa 0,0 l/m 0,0 km/h (0 Bft) SW 225 6,2 C 0,0 C 0,0 km/h (0 Bft)
12.04.2014 18:10 14,3 C 56 % 1016,8 hPa 0,0 l/m 0,0 km/h (0 Bft) SW 225 5,6 C 0,0 C 0,0 km/h (0 Bft)
12.04.2014 18:15 14,0 C 57 % 1016,8 hPa 0,0 l/m 0,0 km/h (0 Bft) SW 225 5,6 C 0,0 C 0,0 km/h (0 Bft)
12.04.2014 18:19 14,0 C 58 % 1016,8 hPa 0,0 l/m 0,0 km/h (0 Bft) SW 225 5,9 C 0,0 C 0,0 km/h (0 Bft)
12.04.2014 18:20 13,8 C 58 % 1016,8 hPa 0,0 l/m 0,0 km/h (0 Bft) SW 225 5,7 C 0,0 C 0,0 km/h (0 Bft)
12.04.2014 18:25 13,5 C 58 % 1016,6 hPa 0,0 l/m 0,0 km/h (0 Bft) SW 225 5,4 C 0,0 C 0,0 km/h (0 Bft)
12.04.2014 18:30 13,0 C 60 % 1016,6 hPa 0,0 l/m 0,0 km/h (0 Bft) SW 225 5,4 C 0,0 C 0,0 km/h (0 Bft)
12.04.2014 18:35 12,7 C 61 % 1016,6 hPa 0,0 l/m 0,0 km/h (0 Bft) SW 225 5,4 C 0,0 C 0,0 km/h (0 Bft)
12.04.2014 18:40 12,4 C 62 % 1016,6 hPa 0,0 l/m 0,0 km/h (0 Bft) SW 225 5,3 C 0,0 C 0,0 km/h (0 Bft)
12.04.2014 18:45 12,1 C 64 % 1016,4 hPa 0,0 l/m 0,0 km/h (0 Bft) SW 225 5,5 C 0,0 C 0,0 km/h (0 Bft)
12.04.2014 18:50 11,9 C 65 % 1016,4 hPa 0,0 l/m 0,0 km/h (0 Bft) SW 225 5,5 C 0,0 C 0,0 km/h (0 Bft)
12.04.2014 18:55 11,8 C 66 % 1016,4 hPa 0,0 l/m 0,0 km/h (0 Bft) SW 225 5,7 C 0,0 C 0,0 km/h (0 Bft)
12.04.2014 19:00 11,7 C 68 % 1016,4 hPa 0,0 l/m 0,0 km/h (0 Bft) SW 225 6,0 C 0,0 C 0,0 km/h (0 Bft)
12.04.2014 19:05 11,7 C 69 % 1016,8 hPa 0,0 l/m 0,0 km/h (0 Bft) SW 225 6,2 C 0,0 C 0,0 km/h (0 Bft)
12.04.2014 19:10 11,8 C 66 % 1016,8 hPa 0,0 l/m 0,0 km/h (0 Bft) SW 225 5,7 C 0,0 C 0,0 km/h (0 Bft)
12.04.2014 19:15 11,5 C 65 % 1016,8 hPa 0,0 l/m 0,0 km/h (0 Bft) SW 225 5,2 C 0,0 C 0,0 km/h (0 Bft)
12.04.2014 19:20 11,1 C 66 % 1016,8 hPa 0,0 l/m 0,0 km/h (0 Bft) SW 225 5,0 C 0,0 C 0,0 km/h (0 Bft)
12.04.2014 19:25 10,9 C 67 % 1017,0 hPa 0,0 l/m 0,0 km/h (0 Bft) SW 225 5,0 C 0,0 C 0,0 km/h (0 Bft)
12.04.2014 19:30 10,6 C 68 % 1017,0 hPa 0,0 l/m 0,0 km/h (0 Bft) SW 225 4,9 C 0,0 C 0,0 km/h (0 Bft)
12.04.2014 19:35 10,5 C 69 % 1017,0 hPa 0,0 l/m 0,0 km/h (0 Bft) SW 225 5,1 C 0,0 C 0,0 km/h (0 Bft)
12.04.2014 19:40 10,1 C 69 % 1017,0 hPa 0,0 l/m 0,0 km/h (0 Bft) SW 225 4,7 C 0,0 C 0,0 km/h (0 Bft)
12.04.2014 19:45 9,9 C 73 % 1016,8 hPa 0,0 l/m 0,0 km/h (0 Bft) SW 225 5,3 C 0,0 C 0,0 km/h (0 Bft)
12.04.2014 19:50 9,6 C 72 % 1016,8 hPa 0,0 l/m 0,0 km/h (0 Bft) SW 225 4,8 C 0,0 C 0,0 km/h (0 Bft)
12.04.2014 19:55 9,3 C 72 % 1016,8 hPa 0,0 l/m 0,0 km/h (0 Bft) SW 225 4,5 C 0,0 C 0,0 km/h (0 Bft)
12.04.2014 20:00 9,1 C 74 % 1016,8 hPa 0,0 l/m 0,0 km/h (0 Bft) SW 225 4,7 C 0,0 C 0,0 km/h (0 Bft)
12.04.2014 20:05 8,9 C 74 % 1016,6 hPa 0,0 l/m 0,0 km/h (0 Bft) SW 225 4,5 C 0,0 C 0,0 km/h (0 Bft)
12.04.2014 20:10 9,0 C 74 % 1016,6 hPa 0,0 l/m 0,0 km/h (0 Bft) SW 225 4,6 C 0,0 C 0,0 km/h (0 Bft)
12.04.2014 20:15 9,0 C 76 % 1016,6 hPa 0,0 l/m 0,0 km/h (0 Bft) SW 225 5,0 C 0,0 C 0,0 km/h (0 Bft)
12.04.2014 20:20 8,8 C 75 % 1016,6 hPa 0,0 l/m 0,0 km/h (0 Bft) SW 225 4,6 C 0,0 C 0,0 km/h (0 Bft)
12.04.2014 20:25 9,0 C 76 % 1016,6 hPa 0,0 l/m 0,0 km/h (0 Bft) SW 225 5,0 C 0,0 C 0,0 km/h (0 Bft)
12.04.2014 20:30 8,9 C 76 % 1016,6 hPa 0,0 l/m 0,0 km/h (0 Bft) SW 225 4,9 C 0,0 C 0,0 km/h (0 Bft)
12.04.2014 20:35 9,0 C 76 % 1016,6 hPa 0,0 l/m 0,0 km/h (0 Bft) SW 225 5,0 C 0,0 C 0,0 km/h (0 Bft)
12.04.2014 20:40 9,3 C 76 % 1016,6 hPa 0,0 l/m 0,0 km/h (0 Bft) SW 225 5,3 C 0,0 C 0,0 km/h (0 Bft)
12.04.2014 20:45 9,5 C 76 % 1016,6 hPa 0,0 l/m 0,0 km/h (0 Bft) SW 225 5,5 C 0,0 C 0,0 km/h (0 Bft)
12.04.2014 20:50 9,6 C 76 % 1016,6 hPa 0,0 l/m 0,0 km/h (0 Bft) SW 225 5,6 C 0,0 C 0,0 km/h (0 Bft)
12.04.2014 20:55 9,7 C 75 % 1016,6 hPa 0,0 l/m 0,0 km/h (0 Bft) SW 225 5,5 C 0,0 C 0,0 km/h (0 Bft)
12.04.2014 21:00 9,8 C 74 % 1016,6 hPa 0,0 l/m 0,0 km/h (0 Bft) SW 225 5,4 C 0,0 C 0,0 km/h (0 Bft)
12.04.2014 21:05 10,0 C 74 % 1016,8 hPa 0,0 l/m 0,0 km/h (0 Bft) SW 225 5,6 C 0,0 C 0,0 km/h (0 Bft)
12.04.2014 21:10 9,2 C 81 % 1016,8 hPa 0,0 l/m 0,0 km/h (0 Bft) SW 225 6,1 C 0,0 C 0,0 km/h (0 Bft)
12.04.2014 21:15 8,8 C 85 % 1016,8 hPa 0,0 l/m 0,0 km/h (0 Bft) SW 225 6,4 C 0,0 C 0,0 km/h (0 Bft)
12.04.2014 21:20 8,4 C 88 % 1016,8 hPa 0,0 l/m 0,0 km/h (0 Bft) SW 225 6,5 C 0,0 C 0,0 km/h (0 Bft)
12.04.2014 21:25 8,4 C 88 % 1016,9 hPa 0,0 l/m 0,0 km/h (0 Bft) SW 225 6,5 C 0,0 C 0,0 km/h (0 Bft)
12.04.2014 21:30 8,4 C 89 % 1016,9 hPa 0,0 l/m 0,0 km/h (0 Bft) SW 225 6,7 C 0,0 C 0,0 km/h (0 Bft)
12.04.2014 21:35 8,4 C 90 % 1016,9 hPa 0,0 l/m 0,0 km/h (0 Bft) SW 225 6,9 C 0,0 C 0,0 km/h (0 Bft)
12.04.2014 21:40 8,6 C 90 % 1016,9 hPa 0,0 l/m 0,0 km/h (0 Bft) SW 225 7,1 C 0,0 C 0,0 km/h (0 Bft)
12.04.2014 21:45 8,6 C 90 % 1017,0 hPa 0,0 l/m 0,0 km/h (0 Bft) SW 225 7,1 C 0,0 C 0,0 km/h (0 Bft)
12.04.2014 21:50 8,4 C 90 % 1017,0 hPa 0,0 l/m 0,0 km/h (0 Bft) SW 225 6,9 C 0,0 C 0,0 km/h (0 Bft)
12.04.2014 21:55 8,3 C 91 % 1017,0 hPa 0,0 l/m 0,0 km/h (0 Bft) SW 225 6,9 C 0,0 C 0,0 km/h (0 Bft)
12.04.2014 22:00 8,3 C 91 % 1017,0 hPa 0,0 l/m 0,0 km/h (0 Bft) SW 225 6,9 C 0,0 C 0,0 km/h (0 Bft)
12.04.2014 22:05 8,3 C 91 % 1017,0 hPa 0,0 l/m 0,0 km/h (0 Bft) SW 225 6,9 C 0,0 C 0,0 km/h (0 Bft)
12.04.2014 22:10 8,2 C 91 % 1016,9 hPa 0,0 l/m 0,0 km/h (0 Bft) SW 225 6,8 C 0,0 C 0,0 km/h (0 Bft)
12.04.2014 22:15 8,2 C 92 % 1016,9 hPa 0,0 l/m 0,0 km/h (0 Bft) SW 225 7,0 C 0,0 C 0,0 km/h (0 Bft)
12.04.2014 22:20 8,2 C 92 % 1016,9 hPa 0,0 l/m 0,0 km/h (0 Bft) SW 225 7,0 C 0,0 C 0,0 km/h (0 Bft)
12.04.2014 22:25 8,1 C 92 % 1016,9 hPa 0,0 l/m 0,0 km/h (0 Bft) SW 225 6,9 C 0,0 C 0,0 km/h (0 Bft)
12.04.2014 22:30 8,0 C 92 % 1016,8 hPa 0,0 l/m 0,0 km/h (0 Bft) SW 225 6,8 C 0,0 C 0,0 km/h (0 Bft)
12.04.2014 22:35 7,9 C 93 % 1016,8 hPa 0,0 l/m 0,0 km/h (0 Bft) SW 225 6,8 C 0,0 C 0,0 km/h (0 Bft)
12.04.2014 22:40 7,9 C 93 % 1016,8 hPa 0,0 l/m 0,0 km/h (0 Bft) SW 225 6,8 C 0,0 C 0,0 km/h (0 Bft)
12.04.2014 22:45 7,8 C 93 % 1016,8 hPa 0,0 l/m 0,0 km/h (0 Bft) SW 225 6,7 C 0,0 C 0,0 km/h (0 Bft)
12.04.2014 22:50 7,7 C 93 % 1016,7 hPa 0,0 l/m 0,0 km/h (0 Bft) SW 225 6,6 C 0,0 C 0,0 km/h (0 Bft)
12.04.2014 22:55 7,7 C 93 % 1016,7 hPa 0,0 l/m 0,0 km/h (0 Bft) SW 225 6,6 C 0,0 C 0,0 km/h (0 Bft)
12.04.2014 23:00 7,6 C 93 % 1016,7 hPa 0,0 l/m 0,0 km/h (0 Bft) SW 225 6,5 C 0,0 C 0,0 km/h (0 Bft)
12.04.2014 23:05 7,7 C 93 % 1016,7 hPa 0,0 l/m 0,0 km/h (0 Bft) SW 225 6,6 C 0,0 C 0,0 km/h (0 Bft)
12.04.2014 23:10 7,7 C 93 % 1016,6 hPa 0,0 l/m 0,0 km/h (0 Bft) SW 225 6,6 C 0,0 C 0,0 km/h (0 Bft)
12.04.2014 23:15 7,9 C 94 % 1016,6 hPa 0,0 l/m 0,0 km/h (0 Bft) SW 225 7,0 C 0,0 C 0,0 km/h (0 Bft)
12.04.2014 23:18 7,9 C 94 % 1016,6 hPa 0,0 l/m 0,0 km/h (0 Bft) SW 225 7,0 C 0,0 C 0,0 km/h (0 Bft)
12.04.2014 23:20 7,9 C 94 % 1016,6 hPa 0,0 l/m 0,0 km/h (0 Bft) SW 225 7,0 C 0,0 C 0,0 km/h (0 Bft)
12.04.2014 23:25 8,0 C 94 % 1016,8 hPa 0,0 l/m 0,0 km/h (0 Bft) SW 225 7,1 C 0,0 C 0,0 km/h (0 Bft)
12.04.2014 23:30 8,0 C 94 % 1016,8 hPa 0,0 l/m 0,0 km/h (0 Bft) SW 225 7,1 C 0,0 C 0,0 km/h (0 Bft)
12.04.2014 23:35 8,0 C 94 % 1016,8 hPa 0,0 l/m 0,0 km/h (0 Bft) SW 225 7,1 C 0,0 C 0,0 km/h (0 Bft)
12.04.2014 23:40 8,1 C 94 % 1016,8 hPa 0,0 l/m 0,0 km/h (0 Bft) SW 225 7,2 C 0,0 C 0,0 km/h (0 Bft)
12.04.2014 23:45 8,1 C 94 % 1016,5 hPa 0,0 l/m 0,0 km/h (0 Bft) SW 225 7,2 C 0,0 C 0,0 km/h (0 Bft)
12.04.2014 23:50 8,2 C 94 % 1016,5 hPa 0,0 l/m 0,0 km/h (0 Bft) SW 225 7,3 C 0,0 C 0,0 km/h (0 Bft)
12.04.2014 23:55 8,3 C 94 % 1016,5 hPa 0,0 l/m 0,0 km/h (0 Bft) SW 225 7,4 C 0,0 C 0,0 km/h (0 Bft)
_ Min-Zeit 06:55 15:20 07:25 - 23:55 - - 06:55 23:55 23:55
Minimum _ 4,0 C 32 % 1016,1 hPa - 0,0 km/h (0 Bft) - - 2,4 C 0,0 C 0,0 km/h (0 Bft)
_ Max-Zeit 15:15 23:55 13:05 23:55 23:55 - - 09:10 23:55 23:55
Maximum _ 20,2 C 94 % 1019,1 hPa 0,0 l/m 0,0 km/h
SW (0 Bft)
- - 9,6 C 0,0 C 0,0 km/h
SW (0 Bft)
Durchschnitt _ 10,5 C 71 % 1017,3 hPa #0,0 l/m 0,0 km/h (0 Bft) - - - 5,0 C 0,0 C 0,0 km/h (0 Bft)